Hourly Weather Bolshoy Kunaley

Today, 30 July, Friday

Time Temperature Precipitation Wind Pressure Humidity
00:00 +15°C° 1.6 mm 1 mps 656 mmHg 98%
01:00 +14°C° 0 mm 1 mps 655 mmHg 99%
02:00 +14°C° 2.5 mm 1 mps 655 mmHg 99%
03:00 +14°C° 2.5 mm 1 mps 655 mmHg 99%
04:00 +14°C° 2.5 mm 2 mps 655 mmHg 99%
05:00 +14°C° 1.7 mm 2 mps 656 mmHg 99%
06:00 +14°C° 1.7 mm 2 mps 656 mmHg 98%
07:00 +14°C° 1.7 mm 2 mps 656 mmHg 98%
08:00 +14°C° 0.2 mm 2 mps 657 mmHg 98%
09:00 +14°C° 0.2 mm 2 mps 657 mmHg 97%
10:00 +14°C° 0.2 mm 2 mps 657 mmHg 97%
11:00 +14°C° 0.1 mm 2 mps 657 mmHg 97%
12:00 +14°C° 0.1 mm 2 mps 657 mmHg 96%
13:00 +13°C° 0.1 mm 2 mps 657 mmHg 95%
14:00 +13°C° 0 mm 1 mps 658 mmHg 95%
15:00 +13°C° 0 mm 1 mps 658 mmHg 95%
16:00 +13°C° 0 mm 1 mps 658 mmHg 95%
17:00 +13°C° 0 mm 1 mps 658 mmHg 95%
18:00 +13°C° 0 mm 1 mps 658 mmHg 95%
19:00 +13°C° 0 mm 1 mps 658 mmHg 94%
20:00 +13°C° 0.1 mm 1 mps 658 mmHg 95%
21:00 +13°C° 0.1 mm 1 mps 659 mmHg 96%
22:00 +12°C° 0.1 mm 1 mps 659 mmHg 97%
23:00 +12°C° 0 mm 1 mps 659 mmHg 97%

Tomorrow, 31 July, Saturday

Time Temperature Precipitation Wind Pressure Humidity
00:00 +11°C° 0 mm 1 mps 659 mmHg 98%
01:00 +10°C° 0 mm 1 mps 659 mmHg 98%
02:00 +10°C° 0 mm 1 mps 659 mmHg 98%
03:00 +10°C° 0 mm 1 mps 659 mmHg 98%
04:00 +10°C° 0 mm 1 mps 660 mmHg 98%
05:00 +11°C° 0 mm 1 mps 660 mmHg 97%
06:00 +11°C° 0 mm 1 mps 661 mmHg 95%
07:00 +12°C° 0 mm 1 mps 661 mmHg 93%
08:00 +14°C° 0 mm 1 mps 662 mmHg 85%
09:00 +16°C° 0 mm 1 mps 662 mmHg 76%
10:00 +19°C° 0 mm 1 mps 663 mmHg 68%
11:00 +20°C° 0 mm 1 mps 663 mmHg 64%
12:00 +21°C° 0 mm 1 mps 663 mmHg 59%
13:00 +23°C° 0 mm 2 mps 663 mmHg 55%
14:00 +21°C° 0.5 mm 2 mps 663 mmHg 61%
15:00 +21°C° 0.5 mm 2 mps 662 mmHg 66%
16:00 +20°C° 0.5 mm 2 mps 662 mmHg 72%
17:00 +20°C° 0.1 mm 1 mps 662 mmHg 77%
18:00 +18°C° 0.1 mm 1 mps 662 mmHg 81%
19:00 +16°C° 0.1 mm 1 mps 661 mmHg 86%
20:00 +15°C° 0 mm 1 mps 661 mmHg 87%
21:00 +14°C° 0 mm 1 mps 661 mmHg 88%
22:00 +14°C° 0 mm 1 mps 661 mmHg 89%
23:00 +13°C° 0 mm 1 mps 661 mmHg 90%

Day after tomorrow, 1 August, Sunday

Time Temperature Precipitation Wind Pressure Humidity
00:00 +13°C° 0 mm 1 mps 661 mmHg 90%
01:00 +13°C° 0 mm 1 mps 661 mmHg 90%
02:00 +13°C° 0 mm 1 mps 661 mmHg 90%
03:00 +12°C° 0 mm 1 mps 661 mmHg 90%
04:00 +12°C° 0 mm 1 mps 660 mmHg 90%
05:00 +14°C° 0 mm 1 mps 661 mmHg 86%
06:00 +15°C° 0 mm 1 mps 661 mmHg 82%
07:00 +18°C° 0 mm 1 mps 661 mmHg 78%
08:00 +19°C° 0.2 mm 1 mps 661 mmHg 73%
09:00 +21°C° 0.2 mm 1 mps 661 mmHg 68%
10:00 +22°C° 0.2 mm 1 mps 661 mmHg 63%
11:00 +23°C° 0.1 mm 2 mps 661 mmHg 58%
12:00 +24°C° 0.1 mm 2 mps 661 mmHg 53%
13:00 +25°C° 0.1 mm 2 mps 660 mmHg 47%
14:00 +24°C° 0 mm 2 mps 660 mmHg 51%
15:00 +24°C° 0 mm 1 mps 659 mmHg 54%
16:00 +23°C° 0 mm 1 mps 659 mmHg 57%
17:00 +22°C° 0 mm 1 mps 659 mmHg 63%
18:00 +21°C° 0 mm 1 mps 658 mmHg 68%
19:00 +19°C° 0 mm 1 mps 658 mmHg 74%
20:00 +18°C° 0 mm 1 mps 657 mmHg 74%
21:00 +16°C° 0 mm 1 mps 657 mmHg 75%
22:00 +16°C° 0 mm 1 mps 657 mmHg 75%
23:00 +16°C° 0 mm 1 mps 656 mmHg 75%

2 August, Monday

Time Temperature Precipitation Wind Pressure Humidity
00:00 +16°C° 0 mm 1 mps 656 mmHg 74%
01:00 +16°C° 0 mm 1 mps 655 mmHg 74%
02:00 +16°C° 0 mm 1 mps 655 mmHg 74%
03:00 +15°C° 0 mm 1 mps 655 mmHg 75%
04:00 +15°C° 0 mm 1 mps 654 mmHg 76%
05:00 +15°C° 0.2 mm 1 mps 654 mmHg 81%
06:00 +14°C° 0.2 mm 1 mps 654 mmHg 87%
07:00 +14°C° 0.2 mm 1 mps 654 mmHg 93%
08:00 +14°C° 1 mm 1 mps 654 mmHg 94%
09:00 +14°C° 1 mm 1 mps 654 mmHg 96%
10:00 +14°C° 1 mm 1 mps 654 mmHg 98%
11:00 +14°C° 0.2 mm 1 mps 654 mmHg 96%
12:00 +15°C° 0.2 mm 1 mps 654 mmHg 95%
13:00 +15°C° 0.2 mm 1 mps 654 mmHg 93%
14:00 +15°C° 0.3 mm 1 mps 654 mmHg 94%
15:00 +15°C° 0.3 mm 1 mps 653 mmHg 95%
16:00 +14°C° 0.3 mm 0 mps 653 mmHg 96%
17:00 +13°C° 0.3 mm 0 mps 653 mmHg 96%
18:00 +13°C° 0.3 mm 0 mps 653 mmHg 96%
19:00 +13°C° 0.3 mm 0 mps 653 mmHg 96%
20:00 +13°C° 0.6 mm 0 mps 653 mmHg 97%
21:00 +12°C° 0.6 mm 0 mps 653 mmHg 98%
22:00 +12°C° 0.6 mm 0 mps 653 mmHg 99%
23:00 +12°C° 1 mm 0 mps 653 mmHg 99%

3 August, Tuesday

Time Temperature Precipitation Wind Pressure Humidity
00:00 +13°C° 1 mm 1 mps 653 mmHg 99%
01:00 +13°C° 1 mm 1 mps 653 mmHg 99%
02:00 +12°C° 0.9 mm 1 mps 653 mmHg 99%
03:00 +12°C° 0.9 mm 1 mps 652 mmHg 99%
04:00 +12°C° 0.9 mm 1 mps 652 mmHg 99%
05:00 +11°C° 1 mm 1 mps 653 mmHg 99%
06:00 +11°C° 1 mm 1 mps 653 mmHg 99%
07:00 +11°C° 1 mm 1 mps 653 mmHg 99%
08:00 +11°C° 0.6 mm 1 mps 653 mmHg 98%
09:00 +11°C° 0.6 mm 1 mps 654 mmHg 98%
10:00 +11°C° 0.6 mm 1 mps 654 mmHg 98%
11:00 +11°C° 0.2 mm 1 mps 654 mmHg 98%
12:00 +11°C° 0.2 mm 1 mps 655 mmHg 98%
13:00 +10°C° 0.2 mm 2 mps 655 mmHg 97%
14:00 +12°C° 0.1 mm 2 mps 655 mmHg 97%
15:00 +12°C° 0.1 mm 2 mps 656 mmHg 97%
16:00 +12°C° 0.1 mm 2 mps 656 mmHg 96%
17:00 +12°C° 0.1 mm 2 mps 656 mmHg 96%
18:00 +12°C° 0.1 mm 2 mps 656 mmHg 96%
19:00 +12°C° 0.1 mm 2 mps 656 mmHg 96%
20:00 +12°C° 0 mm 2 mps 656 mmHg 96%
21:00 +10°C° 0 mm 2 mps 656 mmHg 96%
22:00 +10°C° 0 mm 2 mps 656 mmHg 96%
23:00 +10°C° 0.3 mm 2 mps 656 mmHg 97%

4 August, Wednesday

Time Temperature Precipitation Wind Pressure Humidity
00:00 +10°C° 0.3 mm 2 mps 656 mmHg 97%
01:00 +11°C° 0.3 mm 1 mps 656 mmHg 97%
02:00 +11°C° 0.8 mm 1 mps 656 mmHg 98%
03:00 +11°C° 0.8 mm 1 mps 656 mmHg 98%
04:00 +11°C° 0.8 mm 1 mps 656 mmHg 99%
05:00 +11°C° 0.5 mm 1 mps 656 mmHg 98%
06:00 +11°C° 0.5 mm 1 mps 656 mmHg 98%
07:00 +11°C° 0.5 mm 1 mps 656 mmHg 98%
08:00 +12°C° 0.2 mm 1 mps 657 mmHg 97%
09:00 +12°C° 0.2 mm 1 mps 657 mmHg 96%
10:00 +12°C° 0.2 mm 1 mps 657 mmHg 95%
11:00 +14°C° 0.1 mm 1 mps 657 mmHg 85%
12:00 +16°C° 0.1 mm 1 mps 657 mmHg 75%
13:00 +19°C° 0.1 mm 1 mps 657 mmHg 65%
14:00 +19°C° 0.2 mm 1 mps 657 mmHg 65%
15:00 +19°C° 0.2 mm 1 mps 657 mmHg 64%
16:00 +19°C° 0.2 mm 1 mps 657 mmHg 64%
17:00 +18°C° 0.1 mm 1 mps 657 mmHg 71%
18:00 +14°C° 0.1 mm 0 mps 656 mmHg 78%
19:00 +13°C° 0.1 mm 0 mps 656 mmHg 85%
20:00 +12°C° 0 mm 0 mps 656 mmHg 87%
21:00 +12°C° 0 mm 1 mps 656 mmHg 88%
22:00 +12°C° 0 mm 1 mps 656 mmHg 90%
23:00 +11°C° 0 mm 1 mps 656 mmHg 90%
Show more

We Need Your Consent

Meteoprog and our Service Providers may store and access personal data such as cookies, device identifiers or other similar technologies on your device and process such data to personalise content and ads, as well as provide social media features and to analyse the traffic.

  • Store and/or access information on your device

    Cookies, device identifiers or other information can be stored or accessed on your device for the purposes indicated above.

  • Personalised ads and content, ad and content measurement, audience insights, and products development

    Ads and content can be personalised based on a profile. More data can be added to better personalise ads and content. Ad and content performance can be measured. Insights about the audience who saw the ads and content can be derived. Such data can be used to develop or improve user’s experience, systems and software.

By clicking ‘I Agree’ you will allow the use of indicated cookies, device identifiers, web beacons or other similar technologies. Your settings can be changed in the browser on your device.

For certain purposes, legitimate interests may be relied on, rather than consent. You can read more about this in our Privacy and Cookie Policy.